GW3608 Weather Reports


Display with metric or nautical units.
time (UTC)temp
F
wind
direction
speed
MPH
gust
MPH
rain 1hr
in
rain 24hr
in
rain mn
in
humidity
%
barometer
mb
20260508133023 41 263 0.0 2.0 0.00 0.00 0.00 81 1012.0
20260508131519 41 268 0.0 2.0 0.00 0.00 0.00 81 1012.0
20260508130026 41 163 0.0 1.0 0.00 0.00 0.00 80 1011.8
20260508124508 41 124 0.0 1.0 0.00 0.00 0.00 81 1011.5
20260508123012 40 269 0.0 2.0 0.00 0.00 0.00 82 1011.7
20260508121518 40 252 0.0 2.0 0.00 0.00 0.00 82 1011.8
20260508120019 40 300 0.0 0.0 0.00 0.00 0.00 83 1011.6
20260508114524 39 278 0.0 0.0 0.00 0.00 0.00 85 1011.7
20260508113011 39 277 0.0 0.0 0.00 0.00 0.00 87 1011.9
20260508111514 38 278 0.0 0.0 0.00 0.00 0.00 88 1011.9
20260508110037 38 278 0.0 0.0 0.00 0.00 0.00 88 1011.8
20260508104522 37 278 0.0 0.0 0.00 0.00 0.00 89 1011.7
20260508103026 36 278 0.0 0.0 0.00 0.00 0.00 90 1011.9
20260508101527 35 276 0.0 0.0 0.00 0.00 0.00 89 1011.9
20260508100021 35 235 0.0 0.0 0.00 0.00 0.00 89 1011.9
20260508094522 36 235 0.0 0.0 0.00 0.00 0.00 87 1012.0
20260508093028 36 235 0.0 0.0 0.00 0.00 0.00 86 1011.7
20260508091526 37 235 0.0 0.0 0.00 0.00 0.00 87 1011.6
20260508090029 37 235 0.0 0.0 0.00 0.00 0.00 86 1011.4
20260508084520 38 235 0.0 0.0 0.00 0.00 0.00 85 1011.3
20260508083022 38 242 0.0 0.0 0.00 0.00 0.00 87 1011.5
20260508081526 38 239 0.0 0.0 0.00 0.00 0.00 87 1011.3
20260508080027 38 171 0.0 0.0 0.00 0.00 0.00 86 1011.1
20260508074535 40 141 0.0 1.0 0.00 0.00 0.00 86 1010.9
20260508073018 40 221 0.0 1.0 0.00 0.00 0.00 85 1011.1
20260508071524 41 232 0.0 3.0 0.00 0.00 0.00 86 1011.1
20260508070028 41 247 0.0 4.0 0.00 0.00 0.00 86 1011.0
20260508064529 40 119 0.0 1.0 0.00 0.00 0.00 85 1011.0
20260508063028 41 227 0.0 1.0 0.00 0.00 0.00 84 1011.0
20260508061522 41 111 0.0 0.0 0.00 0.00 0.00 81 1010.9
20260508060025 40 111 0.0 0.0 0.00 0.00 0.00 81 1010.9
20260508054524 39 111 0.0 0.0 0.00 0.00 0.00 82 1010.9
20260508053043 39 111 0.0 0.0 0.00 0.00 0.00 80 1011.0
20260508051525 40 111 0.0 0.0 0.00 0.00 0.00 76 1011.1
20260508050021 42 111 0.0 1.0 0.00 0.00 0.00 73 1011.2
20260508044507 43 46 0.0 1.0 0.00 0.00 0.00 72 1011.4
20260508043010 43 248 0.0 0.0 0.00 0.00 0.00 69 1011.4
20260508041519 43 248 0.0 1.0 0.00 0.00 0.00 67 1011.4
20260508040026 43 244 0.0 2.0 0.00 0.00 0.00 64 1011.3
20260508034532 43 219 0.0 0.0 0.00 0.00 0.00 66 1011.1
20260508033009 43 223 0.0 1.0 0.00 0.00 0.00 68 1011.0
20260508031509 42 46 0.0 0.0 0.00 0.00 0.00 67 1010.8
20260508030024 41 46 0.0 0.0 0.00 0.00 0.00 70 1010.8
20260508024525 41 46 0.0 0.0 0.00 0.00 0.00 70 1010.4
20260508023024 42 46 0.0 0.0 0.00 0.00 0.00 67 1010.3
20260508021513 42 46 0.0 1.0 0.00 0.00 0.00 66 1010.2
20260508020020 42 46 0.0 1.0 0.00 0.00 0.00 68 1010.3
20260508014517 43 59 0.0 1.0 0.00 0.00 0.00 67 1010.2
20260508013022 44 61 0.0 3.0 0.00 0.00 0.00 64 1010.2
20260508011528 45 37 1.0 4.0 0.00 0.00 0.00 62 1010.1
20260508010009 46 5 0.0 0.0 0.00 0.00 0.00 60 1010.0
20260508004516 46 360 0.0 2.0 0.00 0.00 0.00 59 1009.9
20260508003020 46 40 0.0 1.0 0.00 0.00 0.00 59 1009.7
20260508001526 47 32 0.0 2.0 0.00 0.00 0.00 58 1009.7
20260508000028 47 9 0.0 5.0 0.00 0.00 0.00 56 1009.5
20260507234525 47 352 0.0 2.0 0.00 0.00 0.00 56 1009.4
20260507233030 48 78 0.0 4.0 0.00 0.00 0.00 55 1009.3
20260507231526 49 26 0.0 4.0 0.00 0.00 0.00 54 1009.2
20260507230023 49 11 0.0 5.0 0.00 0.00 0.00 54 1009.3
20260507224525 50 9 0.0 5.0 0.00 0.00 0.00 53 1009.2
20260507223029 50 305 1.0 5.0 0.00 0.00 0.00 53 1009.2
20260507221521 50 298 0.0 3.0 0.00 0.00 0.00 52 1009.2
20260507220023 51 350 1.0 6.0 0.00 0.00 0.00 52 1009.2
20260507214525 51 352 0.0 8.0 0.00 0.00 0.00 52 1009.3
20260507213034 51 282 1.0 8.0 0.00 0.00 0.00 51 1009.4
20260507211526 52 318 1.0 7.0 0.00 0.00 0.00 49 1009.3
20260507210025 51 26 0.0 5.0 0.00 0.00 0.00 52 1009.3
20260507204524 53 5 2.0 7.0 0.00 0.00 0.00 48 1009.3
20260507203030 52 30 2.0 8.0 0.00 0.00 0.00 48 1009.3
20260507201529 54 317 4.0 11.0 0.00 0.01 0.00 45 1009.5
20260507200028 54 10 1.0 7.0 0.00 0.01 0.00 48 1009.4
20260507194509 53 277 1.0 8.0 0.00 0.02 0.00 52 1009.5
20260507193014 52 44 2.0 9.0 0.00 0.03 0.00 50 1009.7
20260507191517 52 297 1.0 8.0 0.00 0.04 0.00 47 1009.8
20260507190018 53 30 1.0 10.0 0.00 0.04 0.00 47 1009.9
20260507184503 53 69 2.0 8.0 0.00 0.04 0.00 49 1010.0
20260507183006 52 333 1.0 11.0 0.00 0.04 0.00 49 1010.1
20260507181511 55 344 2.0 9.0 0.00 0.04 0.00 45 1010.1
20260507180022 54 43 3.0 9.0 0.00 0.04 0.00 46 1010.4
20260507174520 54 38 1.0 8.0 0.00 0.04 0.00 47 1010.5
20260507173005 53 236 2.0 7.0 0.00 0.04 0.00 49 1010.8
20260507171507 52 13 3.0 10.0 0.00 0.05 0.00 47 1010.9
20260507170013 50 21 2.0 5.0 0.00 0.05 0.00 51 1011.0
20260507164518 52 59 1.0 7.0 0.00 0.06 0.00 49 1011.0
20260507163019 51 349 1.0 10.0 0.00 0.06 0.00 56 1011.1
20260507161504 49 360 0.0 9.0 0.00 0.06 0.00 55 1011.3
20260507160012 50 286 0.0 4.0 0.00 0.07 0.00 55 1011.2
20260507154518 51 282 1.0 7.0 0.00 0.07 0.00 59 1011.5
20260507153022 51 264 2.0 7.0 0.00 0.08 0.00 56 1011.5
20260507151521 49 51 1.0 10.0 0.00 0.09 0.00 53 1011.7
20260507150007 49 255 4.0 9.0 0.00 0.11 0.00 57 1012.0
20260507144514 47 281 1.0 7.0 0.00 0.12 0.00 60 1012.1
20260507143021 47 360 1.0 7.0 0.00 0.14 0.00 59 1012.1
20260507141522 46 265 0.0 5.0 0.00 0.15 0.00 63 1012.1
20260507140024 45 267 0.0 4.0 0.00 0.16 0.00 64 1012.2
20260507134515 44 294 1.0 5.0 0.00 0.18 0.00 67 1012.4